[[{"header":{"parameterUnit":"m.s-1","parameterCategory":1,"la1":30.2992,"la2":30.254,"lo1":-89.0895,"lo2":-89.0443,"dy":0.0025,"dx":0.0025,"nx":19,"ny":19,"refTime":"2026-04-14T21:00:00:Z","depth":0,"parameterNumber":2,"parameterNumberName":"U-component_of_WINDS"},"data":[0,0,0,-1.5222,-1.5225,-1.5412,-1.5413,-1.5642,-1.5644,0,0,0,0,0,0,0,0,0,0,0,-1.5156,-1.5158,-1.5222,-1.5226,-1.5412,-1.5413,-1.5642,-1.5644,0,0,0,0,0,0,0,0,0,0,0,-1.5156,-1.5157,-1.5159,-1.5227,-1.5412,-1.5413,-1.5641,-1.5505,0,0,0,0,0,0,0,0,0,0,-1.5326,-1.5254,-1.5157,-1.5159,-1.5228,-1.5412,-1.5413,-1.5499,-1.5513,-1.5552,0,-1.558,0,-1.5615,-1.5658,-1.5659,0,0,0,-1.5235,-1.5242,-1.5301,-1.5159,-1.5229,-1.5412,-1.5331,-1.5507,-1.5524,-1.5572,-1.5583,-1.5592,-1.5619,-1.566,-1.5661,-1.5845,-1.5845,0,0,-1.5224,-1.5185,-1.5289,-1.5311,-1.5277,-1.5325,-1.5336,-1.5517,-1.5529,-1.5584,-1.5598,-1.5623,-1.5661,-1.5663,-1.5844,-1.5845,0,0,0,-1.5189,-1.5178,-1.5233,-1.5301,-1.5335,-1.533,-1.5343,-1.5521,-1.5542,-1.56,-1.5625,-1.5662,-1.5665,-1.5844,-1.5845,-1.5827,0,0,0,-1.5183,-1.5157,-1.5228,-1.5206,-1.5332,-1.543,-1.5342,-1.5529,-1.5551,-1.5624,-1.5662,-1.5667,-1.5844,-1.5844,-1.5827,-1.5826,0,0,0,-1.5148,-1.5153,-1.5176,-1.5204,-1.5282,-1.5428,-1.5459,-1.5535,-1.5566,-1.5659,-1.5668,-1.5843,-1.5844,-1.5826,-1.5825,-1.5862,0,0,0,-1.51,-1.516,-1.5175,-1.5253,-1.528,-1.5414,-1.5459,-1.5562,-1.5639,-1.5663,-1.5844,-1.5845,-1.5826,-1.5825,-1.5861,-1.5885,-1.5892,0,0,-1.5154,-1.5165,-1.5214,-1.5233,-1.5354,-1.5389,-1.551,-1.562,-1.5667,-1.5784,-1.5789,-1.5827,-1.5825,-1.5862,-1.5943,-1.5947,0,0,0,-1.5218,-1.5253,-1.5293,-1.5363,-1.5447,-1.5519,-1.5614,-1.5655,-1.5756,-1.5717,-1.5852,-1.5852,-1.5876,-1.5889,-1.5893,-1.5916,-1.5849,-1.5849,-1.5849,-1.5239,-1.5293,-1.5378,-1.5454,-1.5522,-1.5619,-1.5681,-1.5754,-1.5791,-1.5822,-1.5856,-1.5898,-1.5912,-1.5915,-1.5938,-1.5874,-1.5874,-1.5874,-1.5874,-1.5323,-1.5381,-1.5426,-1.5524,-1.5582,-1.5667,-1.5765,-1.5788,-1.5877,-1.5876,-1.59,-1.5892,-1.5918,-1.5942,-1.5873,-1.5874,-1.5874,-1.5874,-1.5874,-1.5342,-1.5379,-1.5426,-1.5533,-1.5612,-1.5689,-1.5772,-1.5824,-1.5873,-1.5896,-1.5939,-1.5939,-1.5946,-1.5913,-1.5913,-1.5913,-1.5913,-1.5913,-1.5914,-1.5343,-1.5397,-1.5458,-1.5551,-1.5603,-1.5679,-1.5779,-1.5834,-1.5908,-1.5939,-1.594,-1.5973,-1.5911,-1.5893,-1.5916,-1.5916,-1.5915,-1.5915,-1.5915,-1.5407,-1.54,-1.5494,-1.5546,-1.5662,-1.5736,-1.5801,-1.5907,-1.596,-1.6,-1.603,-1.5975,-1.5991,-1.5988,-1.5974,-1.6017,-1.6017,-1.6017,-1.6017,-1.5422,-1.5434,-1.5542,-1.5622,-1.5707,-1.5775,-1.5884,-1.5964,-1.6046,-1.6083,-1.6085,-1.6071,-1.6066,-1.6085,-1.608,-1.6068,-1.6134,-1.6134,-1.6134,-1.5464,-1.5487,-1.5567,-1.5643,-1.5738,-1.5819,-1.5923,-1.6017,-1.611,-1.614,-1.6113,-1.6108,-1.6087,-1.6077,-1.6104,-1.6096,-1.6074,0,0]},{"header":{"parameterUnit":"m.s-1","parameterCategory":1,"la1":30.2992,"la2":30.254,"lo1":-89.0895,"lo2":-89.0443,"dy":0.0025,"dx":0.0025,"nx":19,"ny":19,"refTime":"2026-04-14T21:00:00:Z","depth":0,"parameterNumber":3,"parameterNumberName":"V-component_of_WINDS"},"data":[0,0,0,3.9131,3.9132,3.9203,3.9203,3.9297,3.9297,0,0,0,0,0,0,0,0,0,0,0,3.9115,3.9116,3.913,3.9132,3.9202,3.9203,3.9296,3.9297,0,0,0,0,0,0,0,0,0,0,0,3.9115,3.9116,3.9117,3.9133,3.9202,3.9203,3.9296,3.9241,0,0,0,0,0,0,0,0,0,0,3.9172,3.9163,3.9115,3.9117,3.9133,3.9202,3.9203,3.9238,3.9244,3.9267,0,3.9292,0,3.9296,3.9304,3.9305,0,0,0,3.9128,3.9158,3.9173,3.9117,3.9134,3.9202,3.917,3.9242,3.9249,3.9276,3.9293,3.9296,3.9298,3.9305,3.9305,3.9458,3.9459,0,0,3.9124,3.913,3.9168,3.9178,3.917,3.9167,3.9172,3.9246,3.9264,3.9293,3.9298,3.9299,3.9306,3.9306,3.9458,3.9459,0,0,0,3.9116,3.9127,3.914,3.9174,3.9187,3.9169,3.9175,3.9261,3.9264,3.9299,3.9301,3.9306,3.9307,3.9457,3.9458,3.951,0,0,0,3.9113,3.9123,3.9138,3.9143,3.9186,3.9225,3.9188,3.9259,3.9267,3.93,3.9306,3.9308,3.9456,3.9457,3.9506,3.9532,0,0,0,3.9109,3.9122,3.9134,3.9143,3.9174,3.9224,3.9232,3.9261,3.9269,3.9305,3.9309,3.9455,3.9457,3.9503,3.9527,3.9573,0,0,0,3.9105,3.9179,3.9135,3.9219,3.9173,3.9257,3.9231,3.9292,3.933,3.9307,3.9456,3.9458,3.9502,3.9523,3.9569,3.9611,3.963,0,0,3.9201,3.9191,3.9239,3.9202,3.9295,3.9245,3.9345,3.9372,3.9369,3.9428,3.9432,3.9507,3.9526,3.9572,3.9737,3.9752,0,0,0,3.9272,3.9306,3.933,3.9367,3.9391,3.9413,3.9425,3.9435,3.9485,3.9402,3.9537,3.9548,3.9575,3.9594,3.9607,3.9628,3.9468,3.9468,3.9467,3.9416,3.941,3.9489,3.9491,3.9527,3.9539,3.9566,3.9581,3.9564,3.9596,3.9612,3.9713,3.9737,3.9746,3.9769,3.9636,3.9636,3.9636,3.9637,3.9555,3.9602,3.9578,3.9646,3.9638,3.9694,3.9708,3.9694,3.9743,3.9701,3.9723,3.9676,3.9763,3.9782,3.964,3.964,3.9639,3.9639,3.9639,3.9647,3.9668,3.9681,3.9733,3.9774,3.9773,3.9821,3.9813,3.9804,3.9827,3.9842,3.9841,3.9837,3.9836,3.9836,3.9836,3.9837,3.9837,3.9837,3.9736,3.9749,3.9792,3.9824,3.9846,3.9874,3.9887,3.9908,3.9928,3.9917,3.9917,3.9894,3.9774,3.9743,3.9842,3.9841,3.9841,3.984,3.984,3.9875,3.9843,3.9909,3.9932,3.9968,4.0008,3.9997,4.004,4.0055,4.0079,4.0052,3.9966,3.9953,3.9943,3.9916,4.0055,4.0055,4.0055,4.0055,3.9951,3.9945,4.0011,4.0046,4.0081,4.0078,4.015,4.0161,4.0166,4.0174,4.0153,4.0119,4.0109,4.0102,4.0088,4.0063,4.0236,4.0236,4.0237,4.0035,4.0032,4.0097,4.0104,4.0131,4.0154,4.0222,4.0262,4.0261,4.0244,4.018,4.0173,4.0116,4.0099,4.0078,4.0057,4.0011,0,0]}]]